Location: Saint-Palais-sur-Mer
(45.6429°N, 1.0859°W)
Time: 16:14:08
(UTC+01:00)

S-56A Canister/Altair - Pass Details

Date: 09 February 2026
Orbit: 633 x 2484 km, 38.9° (Epoch: 16 March)

Event Time Altitude Azimuth Distance (km) Brightness Sun altitude
Exits shadow 04:57:59 58° 202° (SSW) 2,095 9.3 -34.8°
Maximum altitude 04:59:24 62° 173° (S) 2,109 9.5 -34.5°
Drops below altitude 10° 05:12:55 10° 98° (E) 4,983 12.4 -32.3°
Sets 05:17:09 0° 95° (E) 6,100 13.1 -31.5°
